DW2762 Weather Reports


Display with metric or nautical units.
time (UTC)temp
F
wind
direction
speed
MPH
gust
MPH
rain 1hr
in
rain 24hr
in
rain mn
in
humidity
%
barometer
mb
20260902031614 52 317 0.0 0.0 0.00 0.00 0.00 87 1021.6
20260902030113 53 317 0.0 0.0 0.00 0.00 0.00 87 1021.5
20260902024613 53 317 0.0 0.0 0.00 0.00 0.00 87 1021.6
20260902023113 53 317 0.0 0.0 0.00 0.00 0.00 87 1021.4
20260902020113 53 317 0.0 0.0 0.00 0.00 0.00 86 1021.6
20260902014613 53 317 0.0 0.0 0.00 0.00 0.00 85 1021.6
20260902013113 54 317 0.0 0.0 0.00 0.00 0.00 86 1021.9
20260902011612 53 317 0.0 0.0 0.00 0.00 0.00 86 1021.7
20260902010112 53 317 0.0 0.0 0.00 0.00 0.00 86 1021.8
20260902004612 53 317 0.0 0.0 0.00 0.00 0.00 86 1021.6
20260902003112 53 317 0.0 0.0 0.00 0.00 0.00 85 1021.7
20260902001612 53 317 0.0 0.0 0.00 0.00 0.00 85 1021.7
20260902000112 54 317 0.0 0.0 0.00 0.00 0.00 85 1021.6
20260901234612 54 317 0.0 0.0 0.00 0.00 0.00 84 1021.7
20260901230111 55 317 0.0 0.0 0.00 0.00 0.00 82 1021.9
20260901224611 55 317 0.0 0.0 0.00 0.00 0.00 81 1021.9
20260901221612 56 333 2.0 3.0 0.00 0.00 0.00 81 1021.9
20260901214611 56 333 0.0 0.0 0.00 0.00 0.00 79 1021.7
20260901213110 57 333 0.0 1.0 0.00 0.00 0.00 78 1021.6
20260901211611 58 333 0.0 0.0 0.00 0.00 0.00 76 1021.6
20260901204612 59 333 0.0 2.0 0.00 0.00 0.00 74 1021.6
20260901203110 60 333 0.0 2.0 0.00 0.00 0.00 73 1021.4
20260901201610 60 334 2.0 3.0 0.00 0.00 0.00 72 1021.5
20260901200110 60 335 0.0 0.0 0.00 0.00 0.00 72 1021.5
20260901193110 62 335 1.0 2.0 0.00 0.00 0.00 68 1021.3
20260901191610 62 335 0.0 0.0 0.00 0.00 0.00 67 1021.2
20260901190110 63 335 0.0 0.0 0.00 0.00 0.00 66 1021.1
20260901184609 64 335 2.0 4.0 0.00 0.00 0.00 64 1020.9
20260901181609 65 342 2.0 5.0 0.00 0.00 0.00 62 1020.6
20260901180109 67 332 2.0 3.0 0.00 0.00 0.00 61 1020.5
20260901174609 68 332 0.0 1.0 0.00 0.00 0.00 59 1020.3
20260901173109 69 332 2.0 3.0 0.00 0.00 0.00 56 1020.2
20260901171609 70 333 1.0 2.0 0.00 0.00 0.00 54 1020.2
20260901170110 71 321 3.0 4.0 0.00 0.00 0.00 53 1020.1
20260901164610 71 313 2.0 8.0 0.00 0.00 0.00 51 1020.1
20260901161608 72 307 4.0 8.0 0.00 0.00 0.00 49 1020.1
20260901160108 74 338 8.0 11.0 0.00 0.00 0.00 47 1020.2
20260901154608 74 301 4.0 12.0 0.00 0.00 0.00 45 1020.3
20260901153108 75 278 6.0 11.0 0.00 0.00 0.00 44 1020.2
20260901150108 75 263 7.0 9.0 0.00 0.00 0.00 44 1020.3
20260901144608 76 350 5.0 11.0 0.00 0.00 0.00 45 1020.1
20260901141612 75 318 8.0 11.0 0.00 0.00 0.00 45 1020.2
20260901134613 76 333 6.0 9.0 0.00 0.00 0.00 43 1020.3
20260901133112 76 319 3.0 8.0 0.00 0.00 0.00 47 1020.3
20260901131612 75 331 5.0 13.0 0.00 0.00 0.00 44 1020.3
20260901130112 74 204 4.0 11.0 0.00 0.00 0.00 47 1020.4
20260901124612 74 254 6.0 11.0 0.00 0.00 0.00 46 1020.4
20260901123112 75 270 7.0 14.0 0.00 0.00 0.00 45 1020.4
20260901121612 77 265 7.0 12.0 0.00 0.00 0.00 44 1020.2
20260901120111 76 311 8.0 15.0 0.00 0.00 0.00 45 1020.6
20260901113111 76 290 9.0 15.0 0.00 0.00 0.00 47 1020.6
20260901111612 75 283 6.0 12.0 0.00 0.00 0.00 49 1020.6
20260901110111 76 248 9.0 17.0 0.00 0.00 0.00 51 1020.6
20260901104611 73 292 6.0 16.0 0.00 0.00 0.00 53 1020.7
20260901103111 74 306 9.0 13.0 0.00 0.00 0.00 52 1020.7
20260901101611 74 284 4.0 9.0 0.00 0.00 0.00 54 1020.6
20260901094610 73 283 7.0 13.0 0.00 0.00 0.00 53 1020.8
20260901093110 73 5 6.0 12.0 0.00 0.00 0.00 56 1020.6
20260901091610 73 336 7.0 15.0 0.00 0.00 0.00 56 1020.7
20260901084611 71 300 5.0 14.0 0.00 0.00 0.00 60 1020.8
20260901081611 70 298 5.0 12.0 0.00 0.00 0.00 62 1020.7
20260901080110 70 340 5.0 17.0 0.00 0.00 0.00 63 1020.6
20260901074609 69 263 8.0 17.0 0.00 0.00 0.00 63 1020.6
20260901073109 68 264 8.0 11.0 0.00 0.00 0.00 66 1020.3
20260901071609 67 267 5.0 14.0 0.00 0.00 0.00 67 1020.2
20260901064609 66 312 5.0 11.0 0.00 0.00 0.00 70 1019.9
20260901060109 63 286 7.0 12.0 0.00 0.00 0.00 73 1019.8
20260901053109 62 269 4.0 8.0 0.00 0.00 0.00 75 1019.4
20260901051609 62 261 3.0 7.0 0.00 0.00 0.00 75 1019.3
20260901044609 61 256 3.0 11.0 0.00 0.00 0.00 76 1019.1
20260901043109 61 276 4.0 11.0 0.00 0.00 0.00 76 1018.9
20260901041608 60 263 5.0 11.0 0.00 0.00 0.00 76 1018.8
20260901040108 60 292 6.0 11.0 0.00 0.00 0.00 76 1018.6
20260901034608 60 246 4.0 9.0 0.00 0.00 0.00 76 1018.5
20260901033108 60 274 1.0 7.0 0.00 0.00 0.00 76 1018.6